Weather History for KTYR - December, 2013

Change the Weather History Date:

Sunday, December 29, 2013

  Actual Average Record
Temperature  
Mean Temperature 46 °F 47 °F  
Max Temperature 56 °F 56 °F 81 °F (1984)
Min Temperature 35 °F 38 °F 11 °F (1983)
Degree Days  
Heating Degree Days 19 18  
Month to date heating degree days 526 490  
Since 1 July heating degree days 916 864  
Cooling Degree Days 0 0  
Month to date cooling degree days 10 0  
Year to date cooling degree days 2777 2411  
Moisture  
Dew Point 34 °F    
Average Humidity 68    
Maximum Humidity 76    
Minimum Humidity 59    
Precipitation  
Precipitation 0.00 in 0.13 in 2.57 in (1910)
Month to date precipitation 3.02 3.97  
Year to date precipitation 42.03 45.52  
Snow  
Snow 0.00 in - - ()
Month to date snowfall T  
Since 1 July snowfall T  
Snow Depth 0.00 in    
Sea Level Pressure  
Sea Level Pressure 30.10 in    
Wind  
Wind Speed 7 mph (West)    
Max Wind Speed 20 mph    
Max Gust Speed 26 mph    
Visibility 10 miles    
Events      
T = Trace of Precipitation, MM = Missing Value Source: NWS Daily Summary

Daily Weather History Graph

Daily Weather History Graph

Search for Another Location

Airport or City:

Trip Planner

Search our weather history database for the weather conditions in past years. The results will help you decide how hot, cold, wet, or windy it might be!

Date:

Astronomy

Dec. 29, 2013 Rise Set
Actual Time 7:22 AM CST 5:25 PM CST
Civil Twilight 6:55 AM CST 5:52 PM CST
Nautical Twilight 6:24 AM CST 6:23 PM CST
Astronomical Twilight 5:54 AM CST 6:53 PM CST
Moon 4:11 AM CST (12/29) 3:00 PM CST (12/29)
Length of Visible Light 10h 57m
Length of Day
10h 03m
Waning Crescent, 11% of the Moon is Illuminated
Dec 29
Waning Crescent
Jan 1
New
Jan 7
First Quarter
Jan 15
Full
Jan 23
Last Quarter

Hourly Weather History & Observations

Time (CST) Temp. Windchill Dew Point Humidity Pressure Visibility Wind Dir Wind Speed Gust Speed Precip Events Conditions
12:53 AM 41.0 °F 35.8 °F 30.9 °F 67% 30.01 in 10.0 mi South 8.1 mph - N/A   Clear
1:53 AM 42.1 °F 39.2 °F 30.9 °F 65% 30.01 in 10.0 mi SSW 4.6 mph - N/A   Clear
2:53 AM 39.0 °F - 32.0 °F 76% 30.01 in 10.0 mi Calm Calm - N/A   Partly Cloudy
3:53 AM 39.0 °F 34.0 °F 30.9 °F 73% 29.99 in 10.0 mi South 6.9 mph - N/A   Clear
4:53 AM 39.0 °F 34.0 °F 30.0 °F 70% 29.99 in 10.0 mi South 6.9 mph - N/A   Clear
5:53 AM 37.9 °F 33.5 °F 30.0 °F 73% 30.01 in 10.0 mi South 5.8 mph - N/A   Clear
6:53 AM 39.0 °F 35.7 °F 28.9 °F 67% 30.02 in 10.0 mi SSE 4.6 mph - N/A   Clear
7:53 AM 39.0 °F 36.8 °F 30.9 °F 73% 30.06 in 10.0 mi South 3.5 mph - N/A   Clear
8:53 AM 44.1 °F 41.5 °F 32.0 °F 63% 30.08 in 10.0 mi South 4.6 mph - N/A   Clear
9:53 AM 48.9 °F - 35.1 °F 59% 30.10 in 10.0 mi SSW 6.9 mph - N/A   Clear
10:12 AM 48.2 °F - 35.6 °F 62% 30.10 in 10.0 mi SSW 5.8 mph - N/A   Mostly Cloudy
10:53 AM 50.0 °F - 37.9 °F 63% 30.10 in 10.0 mi SSW 4.6 mph - N/A   Overcast
11:53 AM 51.1 °F - 41.0 °F 68% 30.08 in 10.0 mi WSW 4.6 mph - N/A   Overcast
12:13 PM 51.8 °F - 41.0 °F 67% 30.08 in 10.0 mi NW 3.5 mph - N/A   Overcast
12:53 PM 53.1 °F - 43.0 °F 69% 30.06 in 10.0 mi Calm Calm - N/A   Overcast
1:53 PM 55.0 °F - 43.0 °F 64% 30.04 in 10.0 mi Calm Calm - N/A   Mostly Cloudy
2:53 PM 55.9 °F - 44.1 °F 64% 30.05 in 10.0 mi NW 5.8 mph - N/A   Mostly Cloudy
3:53 PM 55.9 °F - 44.1 °F 64% 30.06 in 10.0 mi WNW 3.5 mph - N/A   Overcast
4:06 PM 55.4 °F - 44.6 °F 67% 30.07 in 10.0 mi WNW 5.8 mph - N/A   Overcast
4:53 PM 54.0 °F - 42.1 °F 64% 30.09 in 10.0 mi NNW 8.1 mph - N/A   Overcast
5:53 PM 46.9 °F - 35.1 °F 63% 30.12 in 10.0 mi NNW 16.1 mph - N/A   Overcast
6:53 PM 43.0 °F 36.8 °F 32.0 °F 65% 30.16 in 10.0 mi NNW 11.5 mph 26.5 mph N/A   Overcast
7:33 PM 39.2 °F 31.2 °F 30.2 °F 70% 30.18 in 10.0 mi NNW 13.8 mph 21.9 mph N/A   Overcast
7:53 PM 39.9 °F 32.5 °F 28.9 °F 65% 30.19 in 10.0 mi NNW 12.7 mph 20.7 mph N/A   Overcast
8:53 PM 39.0 °F 33.4 °F 27.0 °F 62% 30.23 in 10.0 mi NNW 8.1 mph - N/A   Overcast
9:53 PM 37.0 °F 29.8 °F 26.1 °F 65% 30.23 in 10.0 mi NNW 10.4 mph - N/A   Overcast
10:02 PM 37.4 °F 32.8 °F 26.6 °F 65% 30.23 in 10.0 mi NNW 5.8 mph - N/A   Overcast
10:46 PM 37.4 °F 30.3 °F 24.8 °F 60% 30.25 in 10.0 mi NNW 10.4 mph - N/A   Overcast
10:53 PM 36.0 °F 27.5 °F 25.0 °F 64% 30.25 in 10.0 mi NW 12.7 mph - N/A   Overcast
11:53 PM 35.1 °F 27.4 °F 27.0 °F 72% 30.25 in 10.0 mi NW 10.4 mph - N/A   Overcast